Cape Cod CGAS, MA

7:07 PM EDT on September 25, 2017 (GMT -0400)
Cape Cod Coast Guard Air Station

Weather History for KFMH - November, 2012

Change the Weather History Date:

Saturday, November 10, 2012

  Actual Average Record
Temperature  
Mean Temperature 42 °F -  
Max Temperature 51 °F 49 °F 68 °F (1999)
Min Temperature 32 °F 33 °F 17 °F (2004)
Degree Days  
Heating Degree Days 24    
Moisture  
Dew Point 32 °F    
Average Humidity 73    
Maximum Humidity 100    
Minimum Humidity 47    
Precipitation  
Precipitation 0.00 in - - ()
Sea Level Pressure  
Sea Level Pressure 30.29 in    
Wind  
Wind Speed 8 mph (NNW)    
Max Wind Speed 15 mph    
Max Gust Speed 18 mph    
Visibility 10 miles    
Events      
Averages and records for this station are not official NWS values.
T = Trace of Precipitation, MM = Missing Value Source: NWS Daily Summary

Daily Weather History Graph

Daily Weather History Graph

Search for Another Location

Airport or City:

Trip Planner

Search our weather history database for the weather conditions in past years. The results will help you decide how hot, cold, wet, or windy it might be!

Date:

Astronomy

Nov. 10, 2012 Rise Set
Actual Time 6:25 AM EST 4:25 PM EST
Civil Twilight 5:56 AM EST 4:55 PM EST
Nautical Twilight 5:22 AM EST 5:28 PM EST
Astronomical Twilight 4:50 AM EST 6:01 PM EST
Moon 2:24 AM EST (11/10) 2:13 PM EST (11/10)
Length of Visible Light 10h 59m
Length of Day
10h 00m
Waning Crescent, 14% of the Moon is Illuminated
Nov 10
Waning Crescent
Nov 13
New
Nov 20
First Quarter
Nov 28
Full
Dec 6
Last Quarter

Hourly Weather History & Observations

Time (EST) Temp. Windchill Dew Point Humidity Pressure Visibility Wind Dir Wind Speed Gust Speed Precip Events Conditions
12:15 AM 35.6 °F 29.2 °F 26.6 °F 70% 30.12 in 10.0 mi WNW 8.1 mph - N/A   Clear
12:35 AM 37.4 °F 32.1 °F 28.4 °F 70% 30.12 in 10.0 mi WNW 6.9 mph - N/A   Clear
12:55 AM 37.4 °F 31.4 °F 28.4 °F 70% 30.12 in 10.0 mi WNW 8.1 mph - N/A   Clear
1:15 AM 37.4 °F 30.8 °F 28.4 °F 70% 30.12 in 10.0 mi WNW 9.2 mph - N/A   Clear
1:35 AM 39.2 °F 32.5 °F 28.4 °F 65% 30.12 in 10.0 mi West 10.4 mph - N/A   Clear
1:55 AM 37.4 °F 30.8 °F 28.4 °F 70% 30.13 in 10.0 mi WNW 9.2 mph - N/A   Clear
2:15 AM 37.4 °F 30.8 °F 30.2 °F 75% 30.14 in 10.0 mi WNW 9.2 mph - N/A   Clear
2:35 AM 37.4 °F 31.4 °F 30.2 °F 75% 30.14 in 10.0 mi WNW 8.1 mph - N/A   Clear
2:55 AM 37.4 °F 31.4 °F 30.2 °F 75% 30.14 in 10.0 mi WNW 8.1 mph - N/A   Clear
3:15 AM 37.4 °F 32.1 °F 32.0 °F 81% 30.15 in 10.0 mi WNW 6.9 mph - N/A   Clear
3:35 AM 37.4 °F 32.1 °F 30.2 °F 75% 30.15 in 10.0 mi WNW 6.9 mph - N/A   Clear
3:55 AM 37.4 °F 32.1 °F 32.0 °F 81% 30.16 in 10.0 mi NW 6.9 mph - N/A   Clear
4:15 AM 35.6 °F 29.9 °F 32.0 °F 87% 30.16 in 10.0 mi WNW 6.9 mph - N/A   Clear
4:35 AM 35.6 °F 29.9 °F 32.0 °F 87% 30.16 in 10.0 mi WNW 6.9 mph - N/A   Clear
5:15 AM 35.6 °F 29.2 °F 32.0 °F 87% 30.17 in 10.0 mi WNW 8.1 mph - N/A   Clear
5:35 AM 35.6 °F 29.2 °F 32.0 °F 87% 30.18 in 10.0 mi WNW 8.1 mph - N/A   Clear
5:55 AM 35.6 °F 29.2 °F 32.0 °F 87% 30.18 in 10.0 mi NW 8.1 mph - N/A   Clear
6:15 AM 37.4 °F 30.8 °F 32.0 °F 81% 30.20 in 10.0 mi WNW 9.2 mph - N/A   Clear
6:35 AM 37.4 °F 30.8 °F 32.0 °F 81% 30.21 in 10.0 mi NW 9.2 mph - N/A   Clear
6:55 AM 37.4 °F 32.1 °F 33.8 °F 87% 30.22 in 10.0 mi WNW 6.9 mph - N/A   Clear
7:15 AM 39.2 °F 34.2 °F 35.6 °F 87% 30.23 in 10.0 mi WNW 6.9 mph - N/A   Clear
7:35 AM 41.0 °F 36.4 °F 35.6 °F 81% 30.24 in 10.0 mi WNW 6.9 mph - N/A   Clear
7:55 AM 42.8 °F 37.5 °F 35.6 °F 76% 30.25 in 10.0 mi WNW 9.2 mph - N/A   Clear
8:15 AM 44.6 °F 39.2 °F 35.6 °F 71% 30.25 in 10.0 mi WNW 10.4 mph - N/A   Clear
8:35 AM 46.4 °F 41.1 °F 35.6 °F 66% 30.26 in 10.0 mi WNW 11.5 mph - N/A   Clear
8:55 AM 46.4 °F 42.4 °F 35.6 °F 66% 30.27 in 10.0 mi NW 8.1 mph - N/A   Clear
9:15 AM 48.2 °F - 35.6 °F 62% 30.26 in 10.0 mi WNW 11.5 mph 17.3 mph N/A   Clear
9:35 AM 48.2 °F - 35.6 °F 62% 30.26 in 10.0 mi WNW 11.5 mph 16.1 mph N/A   Clear
9:55 AM 48.2 °F - 32.0 °F 54% 30.27 in 10.0 mi NW 13.8 mph 18.4 mph N/A   Clear
10:35 AM 50.0 °F - 32.0 °F 50% 30.27 in 10.0 mi North 9.2 mph - N/A   Clear
10:55 AM 50.0 °F - 32.0 °F 50% 30.27 in 10.0 mi NNW 8.1 mph - N/A   Clear
11:15 AM 50.0 °F - 32.0 °F 50% 30.27 in 10.0 mi North 9.2 mph 16.1 mph N/A   Clear
11:35 AM 50.0 °F - 32.0 °F 50% 30.27 in 10.0 mi North 10.4 mph - N/A   Clear
11:55 AM 51.8 °F - 32.0 °F 47% 30.27 in 10.0 mi NNE 6.9 mph - N/A   Clear
12:15 PM 51.8 °F - 33.8 °F 50% 30.27 in 10.0 mi NNE 8.1 mph - N/A   Clear
12:35 PM 50.0 °F - 32.0 °F 50% 30.27 in 10.0 mi NNE 11.5 mph 18.4 mph N/A   Clear
12:55 PM 50.0 °F - 32.0 °F 50% 30.28 in 10.0 mi NE 11.5 mph 17.3 mph N/A   Clear
1:15 PM 50.0 °F - 32.0 °F 50% 30.29 in 10.0 mi NE 13.8 mph - N/A   Clear
1:35 PM 50.0 °F - 32.0 °F 50% 30.29 in 10.0 mi NE 15.0 mph - N/A   Clear
1:55 PM 50.0 °F - 32.0 °F 50% 30.29 in 10.0 mi NE 13.8 mph - N/A   Clear
2:15 PM 50.0 °F - 32.0 °F 50% 30.30 in 10.0 mi NE 12.7 mph - N/A   Clear
2:35 PM 50.0 °F - 32.0 °F 50% 30.30 in 10.0 mi NE 10.4 mph - N/A   Clear
2:55 PM 48.2 °F - 32.0 °F 54% 30.31 in 10.0 mi NNE 8.1 mph - N/A   Clear
3:15 PM 48.2 °F - 32.0 °F 54% 30.32 in 10.0 mi NNE 8.1 mph - N/A   Clear
3:35 PM 48.2 °F - 32.0 °F 54% 30.32 in 10.0 mi NE 8.1 mph - N/A   Clear
3:55 PM 46.4 °F 42.4 °F 32.0 °F 57% 30.33 in 10.0 mi ENE 8.1 mph - N/A   Clear
4:15 PM 44.6 °F 42.2 °F 33.8 °F 66% 30.34 in 10.0 mi ENE 4.6 mph - N/A   Clear
4:35 PM 42.8 °F - 33.8 °F 70% 30.36 in 10.0 mi Calm Calm - N/A   Clear
4:55 PM 44.6 °F 43.1 °F 35.6 °F 71% 30.36 in 10.0 mi ENE 3.5 mph - N/A   Clear
5:15 PM 41.0 °F - 33.8 °F 76% 30.37 in 10.0 mi Calm Calm - N/A   Clear
5:35 PM 39.2 °F - 33.8 °F 81% 30.38 in 10.0 mi Calm Calm - N/A   Clear
5:55 PM 39.2 °F - 33.8 °F 81% 30.39 in 10.0 mi Calm Calm - N/A   Clear
6:15 PM 37.4 °F - 32.0 °F 81% 30.40 in 10.0 mi Calm Calm - N/A   Clear
6:35 PM 37.4 °F - 33.8 °F 87% 30.41 in 10.0 mi Calm Calm - N/A   Clear
6:55 PM 35.6 °F 32.8 °F 32.0 °F 87% 30.42 in 10.0 mi West 3.5 mph - N/A   Clear
7:15 PM 35.6 °F - 32.0 °F 87% 30.42 in 10.0 mi Calm Calm - N/A   Clear
7:35 PM 35.6 °F - 32.0 °F 87% 30.42 in 10.0 mi Calm Calm - N/A   Clear
7:55 PM 35.6 °F 32.8 °F 32.0 °F 87% 30.43 in 10.0 mi ENE 3.5 mph - N/A   Clear
8:15 PM - - - N/A% 30.43 in - NE 3.5 mph - N/A   Unknown
8:35 PM 32.0 °F - 32.0 °F 100% 30.45 in 10.0 mi Calm Calm - N/A   Clear
8:55 PM 32.0 °F - 32.0 °F 100% 30.45 in 10.0 mi Calm Calm - N/A   Clear
9:15 PM 32.0 °F 28.7 °F 32.0 °F 100% 30.45 in 10.0 mi ENE 3.5 mph - N/A   Clear
9:35 PM 32.0 °F 28.7 °F 30.2 °F 93% 30.45 in 10.0 mi East 3.5 mph - N/A   Clear
9:55 PM 32.0 °F 28.7 °F 32.0 °F 100% 30.45 in 10.0 mi NE 3.5 mph - N/A   Clear
10:15 PM 32.0 °F - 30.2 °F 93% 30.46 in 10.0 mi Calm Calm - N/A   Clear
10:35 PM 32.0 °F - 30.2 °F 93% 30.47 in 10.0 mi Calm Calm - N/A   Clear
10:55 PM 32.0 °F 28.7 °F 30.2 °F 93% 30.47 in 10.0 mi NE 3.5 mph - N/A   Clear
11:15 PM 32.0 °F - 30.2 °F 93% 30.47 in 10.0 mi Calm Calm - N/A   Clear
11:35 PM 32.0 °F 27.5 °F 30.2 °F 93% 30.47 in 10.0 mi ENE 4.6 mph - N/A   Clear
11:55 PM 32.0 °F 28.7 °F 30.2 °F 93% 30.46 in 10.0 mi ENE 3.5 mph - N/A   Clear